Location: Hurecourt
(47.9030°N, 6.0653°E)
Time: 08:09:50
(UTC+00:00)

Cosmos 1674 Rocket - Pass Details

Date: 14 July 2020
Orbit: 602 x 631 km, 82.5° (Epoch: 14 August)

Event Time Altitude Azimuth Distance (km) Brightness Sun altitude
Rises 02:41:07 0° 345° (NNW) 2,889 7.5 -9.7°
Reaches altitude 10° 02:43:25 10° 339° (NNW) 1,974 6.5 -9.4°
Maximum altitude 02:47:34 44° 267° (W) 839 3.9 -9.0°
Drops below altitude 10° 02:51:40 10° 195° (SSW) 1,946 5.6 -8.5°
Enters shadow 02:52:19 - 193° (SSW) 2,203 5.9 -8.4°
